Tracking 27380 objects as of 6-Jun-2023
HD Live streaming from Space Station
objects crossing your sky now

STARLINK-5225

Track STARLINK-5225 now!
10-day predictions
STARLINK-5225 is classified as:


NORAD ID: 54063
Int'l Code: 2022-136N
Perigee: 546.2 km
Apogee: 547.6 km
Inclination: 53.2 °
Period: 95.4 minutes
Semi major axis: 6917 km
RCS: Unknown
Launch date: October 20, 2022
Source: United States (US)
Launch site: AIR FORCE EASTERN TEST RANGE (AFETR)
Your satellite tracking list
Your tracking list is empty




NASA's NSSDC Master Catalog

Two Line Element Set (TLE):
1 54063U 22136N   23157.10337061 -.00000229  00000-0  37220-5 0  9994
2 54063  53.2149 187.2826 0001076  85.5581 274.5534 15.08835027 35214
Source of the keplerian elements: AFSPC